Zurück zum Katalog

OPS 4682 DEB

AktivPO
NORAD 38391·DEBRIS·🇺🇸 United States

Gestartet Apr 3, 1965 von Vandenberg Space Force Base

Loading…

Nächste Überflüge (nächste 24 Stunden)

TLE

VeraltetSource: Space-Track

Epoche: Aug 25, 2026, 07:41 UTC

1 38391U 65027CU  26237.32041073 -.00000393  00000-0 -13562-2 0  9990
2 38391  90.2289   9.3331 0042909 225.5684 134.1924 12.98464640608744

Verfolge OPS 4682 DEB in Echtzeit mit AllMySat

Download on the App Store